EW1613 Weather Reports


Display with metric or nautical units.
time (UTC)temp
F
wind
direction
speed
MPH
gust
MPH
rain 1hr
in
rain 24hr
in
rain mn
in
humidity
%
barometer
mb
20260905123557 93 111 2.0 5.0 0.00 0.00 0.00 49 1016.5
20260905123111 92 216 3.0 4.0 0.00 0.00 0.00 49 1016.5
20260905122558 92 319 1.0 4.0 0.00 0.00 0.00 50 1016.5
20260905122119 92 244 0.0 4.0 0.00 0.00 0.00 50 1016.6
20260905121551 91 261 1.0 3.0 0.00 0.00 0.00 50 1016.6
20260905121052 90 344 1.0 3.0 0.00 0.00 0.00 51 1016.7
20260905120612 91 38 2.0 3.0 0.00 0.00 0.00 50 1016.7
20260905120105 91 312 0.0 3.0 0.00 0.00 0.00 50 1016.8
20260905115605 90 308 1.0 3.0 0.00 0.00 0.00 50 1016.8
20260905115059 90 305 1.0 3.0 0.00 0.00 0.00 50 1016.8
20260905114600 90 269 0.0 8.0 0.00 0.00 0.00 51 1016.8
20260905114053 90 309 3.0 8.0 0.00 0.00 0.00 50 1016.9
20260905113554 90 271 1.0 7.0 0.00 0.00 0.00 51 1016.8
20260905113135 90 295 1.0 7.0 0.00 0.00 0.00 51 1016.8
20260905112635 89 226 1.0 10.0 0.00 0.00 0.00 53 1016.8
20260905112107 88 346 4.0 10.0 0.00 0.00 0.00 55 1016.8
20260905111609 88 26 2.0 4.0 0.00 0.00 0.00 55 1016.8
20260905111115 89 55 1.0 4.0 0.00 0.00 0.00 53 1016.8
20260905110555 89 333 3.0 4.0 0.00 0.00 0.00 52 1016.9
20260905110116 89 355 1.0 4.0 0.00 0.00 0.00 52 1016.9
20260905105608 89 259 2.0 4.0 0.00 0.00 0.00 53 1017.0
20260905105102 88 10 0.0 3.0 0.00 0.00 0.00 53 1016.9
20260905104603 88 43 1.0 3.0 0.00 0.00 0.00 54 1016.9
20260905104057 87 49 0.0 4.0 0.00 0.00 0.00 54 1016.9
20260905103618 87 40 1.0 5.0 0.00 0.00 0.00 54 1017.0
20260905103059 87 5 3.0 5.0 0.00 0.00 0.00 54 1017.1
20260905102550 87 5 0.0 3.0 0.00 0.00 0.00 56 1017.1
20260905102111 86 5 0.0 4.0 0.00 0.00 0.00 56 1017.1
20260905101550 86 32 2.0 4.0 0.00 0.00 0.00 56 1017.1
20260905101104 86 327 2.0 4.0 0.00 0.00 0.00 56 1017.0
20260905100605 86 311 1.0 4.0 0.00 0.00 0.00 57 1017.1
20260905100125 86 22 2.0 4.0 0.00 0.00 0.00 58 1017.1
20260905095558 86 49 1.0 4.0 0.00 0.00 0.00 57 1017.0
20260905095052 85 59 0.0 3.0 0.00 0.00 0.00 58 1017.1
20260905094552 85 59 1.0 3.0 0.00 0.00 0.00 58 1017.1
20260905094113 85 48 1.0 3.0 0.00 0.00 0.00 58 1017.1
20260905093634 85 17 1.0 3.0 0.00 0.00 0.00 57 1017.2
20260905093102 85 323 1.0 3.0 0.00 0.00 0.00 58 1017.2
20260905092557 85 331 2.0 4.0 0.00 0.00 0.00 58 1017.3
20260905092057 85 296 1.0 4.0 0.00 0.00 0.00 58 1017.3
20260905091551 85 355 1.0 4.0 0.00 0.00 0.00 58 1017.2
20260905091112 86 349 2.0 4.0 0.00 0.00 0.00 58 1017.1
20260905090612 86 331 2.0 4.0 0.00 0.00 0.00 58 1017.1
20260905090112 85 38 0.0 3.0 0.00 0.00 0.00 58 1017.1
20260905085605 85 300 2.0 3.0 0.00 0.00 0.00 59 1017.2
20260905085105 84 330 0.0 3.0 0.00 0.00 0.00 60 1017.2
20260905084600 84 330 1.0 3.0 0.00 0.00 0.00 61 1017.1
20260905084059 84 328 2.0 3.0 0.00 0.00 0.00 61 1017.1
20260905083553 84 339 2.0 3.0 0.00 0.00 0.00 61 1016.9
20260905083129 83 95 0.0 3.0 0.00 0.00 0.00 62 1016.7
20260905082608 83 95 1.0 3.0 0.00 0.00 0.00 62 1016.7
20260905082102 82 71 1.0 4.0 0.00 0.00 0.00 68 1016.7
20260905081602 81 51 1.0 4.0 0.00 0.00 0.00 69 1016.8
20260905081056 81 36 2.0 4.0 0.00 0.00 0.00 70 1016.9
20260905080557 80 298 2.0 5.0 0.00 0.00 0.00 72 1016.8
20260905080050 80 306 3.0 5.0 0.00 0.00 0.00 72 1016.8
20260905075550 80 10 2.0 4.0 0.00 0.00 0.00 73 1016.7
20260905075051 79 17 2.0 4.0 0.00 0.00 0.00 73 1016.6
20260905074610 79 39 3.0 4.0 0.00 0.00 0.00 73 1016.5
20260905074103 79 14 1.0 4.0 0.00 0.00 0.00 74 1016.6
20260905073604 78 36 1.0 4.0 0.00 0.00 0.00 74 1016.6
20260905073057 78 31 3.0 4.0 0.00 0.00 0.00 74 1016.5
20260905072558 77 24 0.0 3.0 0.00 0.00 0.00 76 1016.5
20260905072051 77 17 1.0 3.0 0.00 0.00 0.00 76 1016.4
20260905071552 76 344 1.0 3.0 0.00 0.00 0.00 77 1016.5
20260905071114 76 336 1.0 3.0 0.00 0.00 0.00 78 1016.6
20260905070607 76 339 1.0 4.0 0.00 0.00 0.00 78 1016.6
20260905070100 75 342 1.0 5.0 0.00 0.00 0.00 78 1016.6
20260905065601 75 326 1.0 5.0 0.00 0.00 0.00 79 1016.6
20260905065055 75 346 2.0 5.0 0.00 0.00 0.00 79 1016.6
20260905064556 75 340 1.0 4.0 0.00 0.00 0.00 80 1016.6
20260905064118 74 355 1.0 4.0 0.00 0.00 0.00 80 1016.6
20260905063609 74 336 2.0 4.0 0.00 0.00 0.00 81 1016.5
20260905063110 74 5 2.0 4.0 0.00 0.00 0.00 80 1016.3
20260905062603 73 349 2.0 3.0 0.00 0.00 0.00 81 1016.3
20260905062105 73 325 1.0 4.0 0.00 0.00 0.00 82 1016.1
20260905061558 73 325 2.0 4.0 0.00 0.00 0.00 83 1016.2
20260905061059 72 317 2.0 4.0 0.00 0.00 0.00 84 1016.3
20260905060620 72 312 1.0 3.0 0.00 0.00 0.00 85 1016.3
20260905060052 71 311 0.0 2.0 0.00 0.00 0.00 86 1016.2
20260905055552 71 311 0.0 4.0 0.00 0.00 0.00 86 1016.2
20260905055108 71 310 3.0 4.0 0.00 0.00 0.00 86 1016.5
20260905054622 70 317 2.0 5.0 0.00 0.00 0.00 86 1016.5
20260905054101 70 317 3.0 4.0 0.00 0.00 0.00 85 1016.4
20260905053555 70 302 3.0 4.0 0.00 0.00 0.00 85 1016.4
20260905053055 70 327 2.0 4.0 0.00 0.00 0.00 85 1016.3
20260905052556 70 360 0.0 0.0 0.00 0.00 0.00 85 1016.1
20260905052137 70 360 0.0 0.0 0.00 0.00 0.00 86 1015.9
20260905051611 70 360 0.0 0.0 0.00 0.00 0.00 86 1015.8
20260905051051 70 360 0.0 0.0 0.00 0.00 0.00 86 1015.8
20260905050605 69 360 0.0 0.0 0.00 0.00 0.00 86 1015.8
20260905050106 69 360 0.0 0.0 0.00 0.00 0.00 86 1015.9
20260905045559 69 360 0.0 0.0 0.00 0.00 0.00 86 1015.9
20260905045100 70 360 0.0 0.0 0.00 0.00 0.00 86 1015.9
20260905044622 69 360 0.0 0.0 0.00 0.00 0.00 86 1015.8
20260905044054 70 360 0.0 0.0 0.00 0.00 0.00 86 1015.8
20260905043616 69 360 0.0 1.0 0.00 0.00 0.00 85 1015.6
20260905043115 69 360 0.0 1.0 0.00 0.00 0.00 85 1015.8
20260905042608 70 360 0.0 3.0 0.00 0.00 0.00 85 1016.0
20260905042129 70 360 1.0 3.0 0.00 0.00 0.00 85 1016.0
20260905041629 70 355 0.0 0.0 0.00 0.00 0.00 85 1015.9
20260905041102 70 355 0.0 2.0 0.00 0.00 0.00 85 1015.8
20260905040623 70 355 0.0 2.0 0.00 0.00 0.00 85 1015.9
20260905040056 70 355 1.0 2.0 0.00 0.00 0.00 85 1016.0
20260905035556 70 351 0.0 1.0 0.00 0.00 0.00 85 1016.0
20260905035050 70 346 0.0 2.0 0.00 0.00 0.00 85 1015.9
20260905034551 70 346 1.0 4.0 0.00 0.00 0.00 85 1015.9
20260905034129 70 342 1.0 4.0 0.00 0.00 0.00 85 1016.0
20260905033601 70 347 1.0 3.0 0.00 0.00 0.00 85 1016.0
20260905033123 70 346 0.0 2.0 0.00 0.00 0.00 85 1016.0
20260905032602 70 346 0.0 2.0 0.00 0.00 0.00 84 1016.1
20260905032056 70 346 0.0 0.0 0.00 0.00 0.00 84 1016.0
20260905031557 70 346 0.0 1.0 0.00 0.00 0.00 84 1016.0
20260905031108 70 346 0.0 0.0 0.00 0.00 0.00 84 1016.1
20260905030609 70 346 0.0 0.0 0.00 0.00 0.00 84 1016.1
20260905025603 71 346 0.0 0.0 0.00 0.00 0.00 84 1016.0
20260905025100 71 346 0.0 0.0 0.00 0.00 0.00 84 1016.1
20260905024554 71 346 0.0 0.0 0.00 0.00 0.00 84 1016.1
20260905024115 71 346 0.0 1.0 0.00 0.00 0.00 84 1015.9
20260905023609 71 346 0.0 0.0 0.00 0.00 0.00 84 1016.0
20260905023130 71 346 0.0 3.0 0.00 0.00 0.00 84 1015.9
20260905022610 71 346 0.0 3.0 0.00 0.00 0.00 84 1015.9
20260905022101 71 346 1.0 2.0 0.00 0.00 0.00 84 1015.9
20260905021554 71 346 0.0 0.0 0.00 0.00 0.00 84 1015.9
20260905021115 71 346 0.0 2.0 0.00 0.00 0.00 84 1015.9
20260905020554 71 346 0.0 2.0 0.00 0.00 0.00 84 1015.8
20260905020114 71 346 1.0 2.0 0.00 0.00 0.00 83 1016.0
20260905015553 71 346 0.0 0.0 0.00 0.00 0.00 83 1015.9
20260905015106 71 346 0.0 0.0 0.00 0.00 0.00 83 1016.0
20260905014627 71 346 0.0 0.0 0.00 0.00 0.00 83 1016.0
20260905014101 71 346 0.0 0.0 0.00 0.00 0.00 83 1016.1
20260905013559 71 346 0.0 0.0 0.00 0.00 0.00 83 1016.0
20260905013053 71 346 0.0 0.0 0.00 0.00 0.00 83 1015.9
20260905012614 71 346 0.0 0.0 0.00 0.00 0.00 83 1015.9
20260905012113 71 346 0.0 3.0 0.00 0.00 0.00 82 1016.0
20260905011553 71 346 2.0 3.0 0.00 0.00 0.00 82 1016.1
20260905011106 72 5 2.0 3.0 0.00 0.00 0.00 82 1016.2
20260905010550 72 5 0.0 0.0 0.00 0.00 0.00 81 1016.1
20260905010108 72 5 0.0 0.0 0.00 0.00 0.00 81 1016.0
20260905005601 72 5 0.0 0.0 0.00 0.00 0.00 81 1016.0
20260905005101 72 5 0.0 0.0 0.00 0.00 0.00 81 1016.1
20260905004555 72 5 0.0 0.0 0.00 0.00 0.00 81 1016.1
20260905004056 72 5 0.0 0.0 0.00 0.00 0.00 81 1016.1
20260905003550 72 5 0.0 0.0 0.00 0.00 0.00 80 1016.2
20260905003050 72 5 0.0 0.0 0.00 0.00 0.00 80 1016.2
20260905002610 72 5 0.0 0.0 0.00 0.00 0.00 80 1016.2
20260905002104 73 5 0.0 0.0 0.00 0.00 0.00 80 1016.2
20260905001605 73 5 0.0 0.0 0.00 0.00 0.00 80 1016.3
20260905001059 73 5 0.0 0.0 0.00 0.00 0.00 79 1016.3
20260905000559 73 5 0.0 0.0 0.00 0.00 0.00 80 1016.4
20260905000053 73 5 0.0 0.0 0.00 0.00 0.00 80 1016.4
20260904235553 73 5 0.0 0.0 0.00 0.00 0.00 80 1016.5
20260904235053 73 5 0.0 0.0 0.00 0.00 0.00 80 1016.5
20260904234607 73 5 0.0 2.0 0.00 0.00 0.00 80 1016.6
20260904234107 73 5 0.0 2.0 0.00 0.00 0.00 80 1016.5
20260904233601 73 5 0.0 2.0 0.00 0.00 0.00 79 1016.5
20260904233056 73 5 1.0 2.0 0.00 0.00 0.00 79 1016.7
20260904232549 74 5 1.0 2.0 0.00 0.00 0.00 79 1016.7
20260904232110 74 5 0.0 2.0 0.00 0.00 0.00 79 1016.8
20260904231550 74 5 1.0 2.0 0.00 0.00 0.00 79 1016.8
20260904231104 74 5 0.0 1.0 0.00 0.00 0.00 79 1016.8
20260904230604 74 5 0.0 1.0 0.00 0.00 0.00 79 1016.9
20260904230058 74 5 0.0 0.0 0.00 0.00 0.00 78 1016.9
20260904225557 74 5 0.0 0.0 0.00 0.00 0.00 78 1017.0
20260904225058 74 5 0.0 0.0 0.00 0.00 0.00 78 1016.9
20260904224550 74 5 0.0 2.0 0.00 0.00 0.00 78 1017.0
20260904224050 74 5 0.0 2.0 0.00 0.00 0.00 78 1016.9
20260904223611 74 5 1.0 2.0 0.00 0.00 0.00 78 1017.0
20260904223105 74 5 0.0 1.0 0.00 0.00 0.00 78 1016.9
20260904222559 75 5 0.0 3.0 0.00 0.00 0.00 77 1016.9
20260904222059 75 5 0.0 3.0 0.00 0.00 0.00 77 1017.0
20260904221553 75 13 0.0 2.0 0.00 0.00 0.00 77 1017.0
20260904221054 75 13 0.0 2.0 0.00 0.00 0.00 76 1016.9
20260904220615 75 14 1.0 2.0 0.00 0.00 0.00 76 1017.0
20260904220049 76 15 1.0 2.0 0.00 0.00 0.00 75 1017.0
20260904215559 76 16 0.0 3.0 0.00 0.00 0.00 75 1017.0
20260904215100 76 16 1.0 3.0 0.00 0.00 0.00 74 1017.0
20260904214554 76 26 0.0 0.0 0.00 0.00 0.00 74 1017.0
20260904214054 76 26 0.0 2.0 0.00 0.00 0.00 74 1017.1
20260904213615 77 26 0.0 2.0 0.00 0.00 0.00 73 1017.1
20260904213108 77 69 0.0 2.0 0.00 0.00 0.00 73 1017.1
20260904212606 77 78 0.0 1.0 0.00 0.00 0.00 73 1017.1
20260904212100 77 78 0.0 1.0 0.00 0.00 0.00 73 1017.1
20260904211601 77 78 0.0 1.0 0.00 0.00 0.00 73 1017.1
20260904211055 77 78 0.0 3.0 0.00 0.00 0.00 73 1017.1
20260904210555 76 78 2.0 3.0 0.00 0.00 0.00 73 1017.2
20260904210050 77 52 1.0 3.0 0.00 0.00 0.00 73 1017.2
20260904205549 77 47 2.0 3.0 0.00 0.00 0.00 73 1017.2
20260904205110 77 11 1.0 3.0 0.00 0.00 0.00 72 1017.2
20260904204603 77 355 1.0 3.0 0.00 0.00 0.00 72 1017.2
20260904204104 78 342 0.0 2.0 0.00 0.00 0.00 71 1017.3
20260904203557 78 342 0.0 4.0 0.00 0.00 0.00 70 1017.3
20260904203058 79 342 1.0 4.0 0.00 0.00 0.00 69 1017.2
20260904202619 79 22 1.0 3.0 0.00 0.00 0.00 68 1017.3
20260904202135 79 126 0.0 0.0 0.00 0.00 0.00 67 1017.2
20260904201608 80 126 0.0 0.0 0.00 0.00 0.00 66 1017.2
20260904201108 80 126 0.0 2.0 0.00 0.00 0.00 66 1017.2
20260904200602 80 126 0.0 2.0 0.00 0.00 0.00 66 1017.2
20260904200056 81 126 0.0 0.0 0.00 0.00 0.00 65 1017.2
20260904195557 81 170 0.0 0.0 0.00 0.00 0.00 64 1017.1
20260904195052 81 170 0.0 1.0 0.00 0.00 0.00 64 1017.1
20260904194553 81 170 0.0 2.0 0.00 0.00 0.00 64 1017.2
20260904194114 81 170 0.0 3.0 0.00 0.00 0.00 64 1017.1
20260904193612 81 170 1.0 4.0 0.00 0.00 0.00 63 1017.1
20260904193105 81 162 0.0 5.0 0.00 0.00 0.00 63 1017.1
20260904192606 82 155 1.0 7.0 0.00 0.00 0.00 63 1017.1
20260904192100 82 142 2.0 7.0 0.00 0.00 0.00 63 1017.0
20260904191621 82 153 2.0 5.0 0.00 0.00 0.00 62 1017.0
20260904191053 82 173 1.0 5.0 0.00 0.00 0.00 63 1017.0
20260904190554 82 157 1.0 6.0 0.00 0.00 0.00 63 1017.0
20260904190115 83 158 2.0 6.0 0.00 0.00 0.00 62 1016.9
20260904185549 83 145 3.0 9.0 0.00 0.00 0.00 62 1016.9
20260904185110 83 167 3.0 5.0 0.00 0.00 0.00 62 1016.9
20260904184603 83 153 3.0 7.0 0.00 0.00 0.00 62 1016.9
20260904184104 84 171 4.0 8.0 0.00 0.00 0.00 62 1016.8
20260904183558 84 141 2.0 8.0 0.00 0.00 0.00 62 1016.8
20260904183059 84 132 3.0 7.0 0.00 0.00 0.00 62 1016.8
20260904182613 84 135 3.0 8.0 0.00 0.00 0.00 61 1016.7
20260904182053 84 136 3.0 9.0 0.00 0.00 0.00 61 1016.7
20260904181614 85 138 3.0 9.0 0.00 0.00 0.00 61 1016.7
20260904181108 85 151 4.0 9.0 0.00 0.00 0.00 60 1016.6
20260904180608 85 155 2.0 6.0 0.00 0.00 0.00 59 1016.6
20260904175556 86 134 1.0 8.0 0.00 0.00 0.00 58 1016.5
20260904175057 86 128 2.0 8.0 0.00 0.00 0.00 57 1016.5
20260904174551 86 130 2.0 7.0 0.00 0.00 0.00 57 1016.5
20260904174112 86 130 2.0 5.0 0.00 0.00 0.00 56 1016.5
20260904173551 87 128 2.0 5.0 0.00 0.00 0.00 56 1016.5
20260904173112 87 144 2.0 8.0 0.00 0.00 0.00 55 1016.5
20260904172600 87 144 3.0 8.0 0.00 0.00 0.00 54 1016.5
20260904172102 87 126 2.0 7.0 0.00 0.00 0.00 54 1016.5
20260904171556 88 139 4.0 8.0 0.00 0.00 0.00 53 1016.5
20260904171056 88 150 3.0 8.0 0.00 0.00 0.00 53 1016.5
20260904170550 88 130 4.0 6.0 0.00 0.00 0.00 53 1016.6
20260904170051 88 134 3.0 9.0 0.00 0.00 0.00 53 1016.6
20260904165613 88 126 4.0 9.0 0.00 0.00 0.00 52 1016.6
20260904165104 89 165 3.0 11.0 0.00 0.00 0.00 53 1016.6
20260904164606 89 173 4.0 9.0 0.00 0.00 0.00 54 1016.6
20260904164059 89 134 3.0 10.0 0.00 0.00 0.00 54 1016.6
20260904163600 89 132 4.0 10.0 0.00 0.00 0.00 54 1016.6
20260904163054 90 128 3.0 9.0 0.00 0.00 0.00 55 1016.6
20260904162556 90 197 4.0 12.0 0.00 0.00 0.00 54 1016.6
20260904162051 90 132 5.0 12.0 0.00 0.00 0.00 54 1016.6
20260904161612 91 152 2.0 8.0 0.00 0.00 0.00 53 1016.6
20260904161105 91 171 3.0 7.0 0.00 0.00 0.00 52 1016.6
20260904160606 91 144 4.0 7.0 0.00 0.00 0.00 52 1016.7
20260904160100 91 100 3.0 12.0 0.00 0.00 0.00 51 1016.7
20260904155601 91 165 6.0 12.0 0.00 0.00 0.00 50 1016.7
20260904155055 92 151 4.0 8.0 0.00 0.00 0.00 51 1016.7
20260904154549 92 114 3.0 8.0 0.00 0.00 0.00 51 1016.7
20260904154050 92 121 2.0 8.0 0.00 0.00 0.00 51 1016.8
20260904153610 92 175 2.0 6.0 0.00 0.00 0.00 52 1016.8
20260904153133 92 147 2.0 7.0 0.00 0.00 0.00 52 1016.8
20260904152625 92 119 3.0 9.0 0.00 0.00 0.00 51 1016.8
20260904152106 92 144 5.0 9.0 0.00 0.00 0.00 50 1016.9
20260904151606 93 178 5.0 8.0 0.00 0.00 0.00 51 1016.9
20260904151059 93 157 3.0 10.0 0.00 0.00 0.00 52 1016.9
20260904150603 93 138 5.0 10.0 0.00 0.00 0.00 51 1016.9
20260904150055 93 170 3.0 7.0 0.00 0.00 0.00 51 1017.0
20260904145549 94 165 2.0 9.0 0.00 0.00 0.00 51 1017.0
20260904145049 94 175 3.0 9.0 0.00 0.00 0.00 49 1017.0
20260904144610 94 178 3.0 8.0 0.00 0.00 0.00 49 1017.0
20260904144104 95 136 3.0 7.0 0.00 0.00 0.00 49 1017.0
20260904143625 96 144 4.0 8.0 0.00 0.00 0.00 44 1017.1
20260904143058 95 192 3.0 7.0 0.00 0.00 0.00 40 1017.1
20260904142558 95 217 2.0 5.0 0.00 0.00 0.00 41 1017.2
20260904142052 95 223 1.0 7.0 0.00 0.00 0.00 41 1017.2
20260904141553 95 244 4.0 9.0 0.00 0.00 0.00 41 1017.3
20260904141107 95 223 4.0 9.0 0.00 0.00 0.00 40 1017.3
20260904140608 96 231 4.0 8.0 0.00 0.00 0.00 41 1017.3
20260904135601 96 201 3.0 8.0 0.00 0.00 0.00 40 1017.5
20260904135055 95 254 3.0 8.0 0.00 0.00 0.00 41 1017.5
20260904134556 95 225 2.0 6.0 0.00 0.00 0.00 41 1017.6
20260904134050 95 239 2.0 8.0 0.00 0.00 0.00 41 1017.6
20260904133553 95 229 5.0 11.0 0.00 0.00 0.00 41 1017.7
20260904133105 95 231 6.0 11.0 0.00 0.00 0.00 41 1017.6
20260904132606 95 259 2.0 8.0 0.00 0.00 0.00 41 1017.7
20260904132106 95 247 5.0 8.0 0.00 0.00 0.00 41 1017.8
20260904131600 95 263 2.0 7.0 0.00 0.00 0.00 42 1017.9
20260904131056 95 236 3.0 7.0 0.00 0.00 0.00 42 1017.9
20260904130549 95 184 4.0 7.0 0.00 0.00 0.00 43 1017.9
20260904130050 95 265 3.0 6.0 0.00 0.00 0.00 42 1018.0
20260904125604 95 316 1.0 7.0 0.00 0.00 0.00 44 1018.0
20260904125105 95 175 3.0 7.0 0.00 0.00 0.00 43 1018.1
20260904124559 94 229 1.0 3.0 0.00 0.00 0.00 45 1018.2
20260904124119 94 208 2.0 4.0 0.00 0.00 0.00 45 1018.2